[[{"header":{"parameterUnit":"m.s-1","parameterCategory":1,"la1":30.2991,"la2":30.254,"lo1":-89.0895,"lo2":-89.0444,"dy":0.0017,"dx":0.0017,"nx":28,"ny":28,"refTime":"2025-04-02T03:00:00:Z","depth":0,"parameterNumber":2,"parameterNumberName":"U-component_of_WINDS"},"data":[0,0,0,0,0,0,0,0,0,0,0,0,0,0,0,0,0,0,0,0,0,0,0,0,0,0,0,0,0,0,0,0,0,0,0,0,0,0,0,0,0,0,0,0,0,0,0,0,0,0,0,0,0,0,0,0,0,0,-3.6762,-3.6763,0,-3.6874,-3.6875,-3.6877,-3.6901,-3.69,-3.69,-3.6899,-3.7015,-3.7018,-3.7022,0,0,0,0,0,0,0,0,0,0,0,0,0,-3.6569,-3.6573,-3.6762,-3.6763,-3.6764,-3.6874,-3.6875,-3.6877,-3.6901,-3.69,-3.6899,-3.6898,-3.7013,-3.7018,-3.7023,0,0,0,0,0,0,0,0,0,0,0,0,0,-3.6664,-3.6574,-3.6761,-3.679,-3.6793,-3.6874,-3.6876,-3.6877,-3.6902,-3.69,-3.6899,-3.6898,-3.7012,-3.7018,-3.7023,-3.7083,0,0,-3.7041,-3.7043,0,0,0,0,0,0,0,0,-3.6659,-3.6671,-3.6784,-3.6788,-3.6792,-3.6872,-3.685,-3.6947,-3.6902,-3.6861,-3.6899,-3.6897,-3.6968,-3.6978,-3.7002,-3.7089,-3.7094,-3.7041,-3.7045,-3.7047,-3.7049,0,0,0,0,0,0,0,-3.6652,-3.6667,-3.6806,-3.6786,-3.6791,-3.6797,-3.6809,-3.6869,-3.692,-3.6864,-3.6866,-3.6879,-3.697,-3.6996,-3.7004,-3.7096,-3.7041,-3.7046,-3.705,-3.7052,-3.7238,-3.724,0,0,0,0,0,0,-3.6641,-3.6661,-3.6803,-3.681,-3.6721,-3.6802,-3.6815,-3.6848,-3.6919,-3.6929,-3.688,-3.688,-3.6987,-3.6998,-3.7009,-3.7083,-3.7047,-3.7053,-3.7056,-3.7237,-3.7239,-3.724,0,0,0,0,0,0,-3.6636,-3.6653,-3.6798,-3.6736,-3.6755,-3.6806,-3.6843,-3.6851,-3.6876,-3.6931,-3.6941,-3.6896,-3.6986,-3.7,-3.7065,-3.7088,-3.7055,-3.7061,-3.7235,-3.7237,-3.7239,-3.7233,0,0,0,0,0,0,-3.6631,-3.6651,-3.6674,-3.6736,-3.6758,-3.6852,-3.6844,-3.6854,-3.6886,-3.6887,-3.6949,-3.6959,-3.6986,-3.7056,-3.707,-3.7095,-3.7065,-3.7233,-3.7236,-3.7239,-3.7232,-3.7235,-3.7238,0,0,0,0,0,-3.6624,-3.6668,-3.6675,-3.6692,-3.6788,-3.6853,-3.6865,-3.6896,-3.6888,-3.6911,-3.6947,-3.6957,-3.7083,-3.7062,-3.7079,-3.7105,-3.7232,-3.7235,-3.7238,-3.723,-3.7234,-3.7238,0,0,0,0,0,0,-3.6607,-3.6677,-3.6685,-3.6751,-3.6796,-3.6857,-3.6887,-3.69,-3.6948,-3.6947,-3.6983,-3.6997,-3.7059,-3.7089,-3.7064,-3.7168,-3.7157,-3.7164,-3.7145,-3.715,-3.7153,-3.7143,-3.707,0,0,0,0,0,-3.6612,-3.6658,-3.6717,-3.6769,-3.6791,-3.6835,-3.6865,-3.6885,-3.6933,-3.6952,-3.6992,-3.7039,-3.7089,-3.7121,-3.7171,-3.7237,-3.7251,-3.7264,-3.7267,-3.7269,-3.7274,-3.7311,-3.7317,-3.7251,-3.7251,-3.7251,0,0,-3.662,-3.6664,-3.6691,-3.6767,-3.6804,-3.6852,-3.6851,-3.6902,-3.6938,-3.696,-3.7022,-3.7054,-3.7108,-3.7174,-3.7204,-3.7201,-3.7296,-3.7273,-3.7275,-3.7278,-3.7315,-3.7321,-3.7327,-3.7253,-3.7253,-3.7253,0,0,-3.666,-3.6698,-3.6746,-3.6783,-3.6839,-3.6869,-3.688,-3.694,-3.6962,-3.7025,-3.7043,-3.7087,-3.7173,-3.7211,-3.7241,-3.7297,-3.7308,-3.7313,-3.7328,-3.7364,-3.7369,-3.7374,-3.7393,-3.74,-3.7318,-3.7318,-3.7318,0,-3.6664,-3.6736,-3.6769,-3.6819,-3.6852,-3.6874,-3.6923,-3.6958,-3.7027,-3.7049,-3.7045,-3.7153,-3.7191,-3.7266,-3.7279,-3.7304,-3.7318,-3.7304,-3.7366,-3.7371,-3.7376,-3.7394,-3.7402,-3.7318,-3.7318,-3.7318,-3.7318,0,-3.6738,-3.6788,-3.682,-3.6886,-3.6923,-3.6972,-3.7012,-3.7045,-3.7063,-3.7093,-3.7158,-3.7205,-3.7264,-3.7284,-3.7301,-3.7361,-3.7356,-3.7358,-3.7348,-3.7382,-3.74,-3.7407,-3.7318,-3.7318,-3.7318,-3.7318,0,0,-3.6769,-3.6853,-3.6864,-3.6895,-3.6959,-3.6999,-3.7049,-3.7107,-3.7135,-3.7183,-3.7225,-3.7298,-3.7301,-3.7335,-3.7358,-3.7389,-3.743,-3.7387,-3.7389,-3.7392,-3.7498,-3.7495,-3.7503,-3.7438,-3.7439,-3.7441,-3.7493,0,-3.6816,-3.6906,-3.6937,-3.7012,-3.7058,-3.7081,-3.7125,-3.717,-3.72,-3.7244,-3.7278,-3.7328,-3.7328,-3.7349,-3.7381,-3.7418,-3.7451,-3.7415,-3.7478,-3.748,-3.7462,-3.7512,-3.7509,-3.7556,-3.75,-3.7502,-3.7502,0,-3.6883,-3.6931,-3.7009,-3.7068,-3.7089,-3.7128,-3.7183,-3.7226,-3.7277,-3.7297,-3.7336,-3.7356,-3.741,-3.7398,-3.7474,-3.7448,-3.7476,-3.7498,-3.7501,-3.7507,-3.7492,-3.7518,-3.7572,-3.7578,-3.7514,-3.7513,-3.7512,0,-3.6896,-3.6981,-3.7039,-3.7065,-3.7135,-3.7161,-3.7192,-3.7242,-3.7275,-3.7324,-3.7346,-3.7401,-3.7431,-3.7473,-3.7508,-3.7496,-3.758,-3.7571,-3.7598,-3.7597,-3.7613,-3.7611,-3.767,-3.7633,-3.7633,-3.7633,-3.7633,0,-3.6944,-3.6991,-3.7046,-3.7081,-3.7135,-3.7172,-3.7224,-3.7256,-3.7301,-3.7343,-3.7367,-3.7407,-3.7451,-3.7497,-3.7524,-3.7582,-3.7596,-3.7613,-3.762,-3.761,-3.7608,-3.7628,-3.7625,-3.7635,-3.7634,-3.7634,-3.7634,0,-3.6968,-3.7006,-3.7071,-3.7132,-3.7149,-3.7186,-3.7238,-3.7274,-3.7306,-3.7359,-3.7374,-3.7424,-3.7478,-3.7518,-3.7589,-3.7608,-3.7669,-3.7677,-3.7652,-3.7655,-3.7678,-3.7675,-3.7752,-3.7763,-3.7719,-3.772,-3.772,0,-3.6995,-3.7032,-3.7097,-3.7127,-3.7157,-3.7206,-3.7239,-3.7277,-3.7311,-3.7373,-3.7401,-3.7458,-3.7505,-3.7592,-3.7634,-3.7689,-3.7697,-3.772,-3.7705,-3.7694,-3.7696,-3.7693,-3.7696,-3.7721,-3.7722,-3.7722,-3.7722,0,-3.704,-3.7057,-3.7104,-3.7158,-3.7198,-3.7242,-3.7287,-3.7311,-3.7357,-3.7394,-3.745,-3.7487,-3.7559,-3.7615,-3.7674,-3.7706,-3.7722,-3.7727,-3.7736,-3.7725,-3.7709,-3.7717,-3.7656,-3.7724,-3.7724,-3.7724,-3.7724,-3.7724,-3.7066,-3.7099,-3.715,-3.7202,-3.724,-3.7281,-3.7318,-3.7354,-3.7401,-3.7463,-3.7483,-3.7541,-3.7592,-3.7673,-3.7706,-3.7752,-3.7751,-3.7764,-3.7767,-3.777,-3.7769,-3.7703,-3.7763,-3.7763,-3.7763,-3.7763,-3.7763,0,-3.711,-3.7144,-3.7192,-3.7254,-3.7295,-3.7306,-3.7357,-3.739,-3.7441,-3.7487,-3.7533,-3.7598,-3.7652,-3.77,-3.7756,-3.7785,-3.7793,-3.7798,-3.7796,-3.7803,-3.7767,-3.7753,-3.779,-3.779,-3.779,-3.779,-3.779,-3.779,-3.7138,-3.7195,-3.7219,-3.7295,-3.733,-3.7386,-3.7414,-3.7453,-3.749,-3.7561,-3.7606,-3.7636,-3.7683,-3.7744,-3.7794,-3.7807,-3.7826,-3.7829,-3.7843,-3.7809,-3.7805,-3.7802,-3.7789,-3.7834,-3.7834,-3.7876,-3.7876,-3.7876]},{"header":{"parameterUnit":"m.s-1","parameterCategory":1,"la1":30.2991,"la2":30.254,"lo1":-89.0895,"lo2":-89.0444,"dy":0.0017,"dx":0.0017,"nx":28,"ny":28,"refTime":"2025-04-02T03:00:00:Z","depth":0,"parameterNumber":3,"parameterNumberName":"V-component_of_WINDS"},"data":[0,0,0,0,0,0,0,0,0,0,0,0,0,0,0,0,0,0,0,0,0,0,0,0,0,0,0,0,0,0,0,0,0,0,0,0,0,0,0,0,0,0,0,0,0,0,0,0,0,0,0,0,0,0,0,0,0,0,6.1055,6.1056,0,6.1153,6.1154,6.1155,6.1127,6.1125,6.1123,6.1121,6.1219,6.1223,6.1227,0,0,0,0,0,0,0,0,0,0,0,0,0,6.0845,6.0849,6.1055,6.1056,6.1058,6.1152,6.1154,6.1155,6.1128,6.1125,6.1123,6.112,6.1217,6.1223,6.1228,0,0,0,0,0,0,0,0,0,0,0,0,0,6.0939,6.085,6.1055,6.1055,6.1056,6.1152,6.1154,6.1155,6.1128,6.1125,6.1122,6.1119,6.1216,6.1222,6.1229,6.1329,0,0,6.1249,6.1252,0,0,0,0,0,0,0,0,6.0933,6.0946,6.1054,6.1056,6.1057,6.1125,6.1115,6.1214,6.1129,6.1101,6.1121,6.1118,6.119,6.1198,6.1223,6.1334,6.1338,6.125,6.1254,6.1256,6.1258,0,0,0,0,0,0,0,6.0927,6.0942,6.1094,6.1056,6.1057,6.1051,6.1061,6.1134,6.1161,6.1103,6.1101,6.1113,6.119,6.1217,6.1225,6.1339,6.1249,6.1255,6.1259,6.1262,6.154,6.1543,0,0,0,0,0,0,6.092,6.0937,6.1091,6.1097,6.0987,6.1057,6.1068,6.1106,6.116,6.1165,6.1116,6.1112,6.1207,6.1217,6.1228,6.1352,6.1256,6.1263,6.1266,6.1537,6.1541,6.1545,0,0,0,0,0,0,6.0915,6.0934,6.1087,6.1016,6.1035,6.1064,6.1106,6.1109,6.1136,6.1169,6.1174,6.1138,6.1205,6.1219,6.1305,6.1355,6.1266,6.1272,6.1533,6.1538,6.1543,6.1598,0,0,0,0,0,0,6.0909,6.0932,6.0971,6.1018,6.1039,6.1162,6.1109,6.1113,6.1148,6.1144,6.1192,6.1197,6.1204,6.1295,6.1312,6.1362,6.1277,6.1528,6.1535,6.1541,6.1592,6.1604,6.1615,0,0,0,0,0,6.0902,6.0981,6.0973,6.0992,6.1088,6.1165,6.1177,6.1184,6.1152,6.1191,6.1213,6.1195,6.1346,6.1304,6.1323,6.1376,6.1525,6.1533,6.1541,6.1587,6.1602,6.1615,0,0,0,0,0,0,6.0938,6.0987,6.0979,6.1075,6.1117,6.116,6.121,6.12,6.125,6.1244,6.1249,6.126,6.1349,6.1371,6.1323,6.1477,6.1431,6.1443,6.146,6.1475,6.1486,6.148,6.1282,0,0,0,0,0,6.0958,6.1017,6.1056,6.1138,6.1159,6.1181,6.1215,6.1217,6.1259,6.1276,6.1304,6.1345,6.1402,6.1439,6.1493,6.1595,6.1606,6.1641,6.1652,6.1661,6.1672,6.1729,6.1746,6.157,6.157,6.1569,0,0,6.0998,6.1033,6.1069,6.1146,6.1178,6.1239,6.1196,6.1261,6.1307,6.1285,6.137,6.1392,6.1438,6.1533,6.1576,6.1554,6.1723,6.1671,6.1678,6.1684,6.1739,6.1756,6.177,6.1575,6.1574,6.1573,0,0,6.1104,6.1135,6.1208,6.1242,6.1291,6.1306,6.1323,6.1369,6.1383,6.1468,6.1454,6.1508,6.1605,6.164,6.167,6.1791,6.1778,6.1808,6.1869,6.1925,6.1939,6.1952,6.1997,6.2013,6.1818,6.1819,6.1819,0,6.1148,6.124,6.1246,6.1315,6.135,6.1334,6.1409,6.1441,6.1505,6.153,6.1504,6.1628,6.1658,6.1762,6.1792,6.1816,6.1837,6.1803,6.1937,6.1949,6.1961,6.2004,6.2021,6.1822,6.1822,6.1821,6.1821,0,6.1293,6.1357,6.141,6.1474,6.1515,6.1586,6.1603,6.1644,6.1642,6.166,6.1747,6.1783,6.1845,6.1869,6.1868,6.1974,6.1959,6.1935,6.1889,6.1981,6.2022,6.2038,6.1827,6.1826,6.1825,6.1824,0,0,6.1424,6.1492,6.1512,6.1542,6.1596,6.1646,6.1716,6.1779,6.1814,6.1859,6.1919,6.2003,6.1983,6.2017,6.2019,6.2068,6.2165,6.2039,6.204,6.2063,6.2286,6.2305,6.2324,6.2156,6.2159,6.2161,6.2283,0,6.1536,6.1661,6.167,6.1783,6.1843,6.183,6.1892,6.1932,6.1951,6.2004,6.2024,6.2084,6.2051,6.2072,6.212,6.2143,6.221,6.2134,6.2213,6.2215,6.2203,6.2345,6.2365,6.2478,6.2299,6.2301,6.2303,0,6.1683,6.1735,6.1854,6.1903,6.1928,6.1983,6.2042,6.2094,6.2139,6.2149,6.2189,6.2185,6.2258,6.2209,6.2311,6.2259,6.2292,6.2308,6.2312,6.2321,6.2266,6.2359,6.2514,6.2531,6.2328,6.2326,6.2324,0,6.1769,6.1868,6.1953,6.1979,6.2037,6.2077,6.2102,6.2145,6.2183,6.2234,6.2259,6.2317,6.2349,6.2395,6.2407,6.237,6.2509,6.246,6.252,6.252,6.2551,6.2549,6.2715,6.257,6.2569,6.2569,6.2569,0,6.1894,6.1968,6.1993,6.2046,6.2129,6.2138,6.222,6.2244,6.2282,6.234,6.2331,6.2385,6.2397,6.2453,6.2463,6.2547,6.2561,6.2572,6.2574,6.2574,6.2573,6.2596,6.2589,6.2573,6.2572,6.2572,6.2571,0,6.2005,6.2024,6.2117,6.2164,6.2178,6.2238,6.2279,6.233,6.2347,6.242,6.2437,6.2465,6.2531,6.2548,6.2626,6.2633,6.2732,6.2726,6.2717,6.2718,6.2777,6.2772,6.2965,6.2992,6.2827,6.2829,6.283,0,6.2084,6.2141,6.2196,6.2234,6.2262,6.2323,6.2363,6.2374,6.2415,6.2473,6.2517,6.2582,6.2635,6.2741,6.2768,6.2829,6.2825,6.2888,6.2834,6.2833,6.2828,6.2826,6.2832,6.2899,6.2901,6.2902,6.2903,0,6.2223,6.2231,6.2288,6.2349,6.2396,6.2444,6.249,6.2522,6.254,6.2586,6.2655,6.2696,6.2777,6.2843,6.2904,6.293,6.2921,6.292,6.2938,6.2939,6.2933,6.2939,6.2748,6.2916,6.2915,6.2914,6.2913,6.2912,6.2322,6.2374,6.2421,6.2485,6.2521,6.2565,6.2616,6.2641,6.2698,6.2766,6.2769,6.2844,6.289,6.2971,6.3001,6.306,6.3041,6.3065,6.3072,6.3079,6.3085,6.2922,6.3071,6.3071,6.307,6.307,6.307,0,6.2463,6.2494,6.2552,6.2619,6.2669,6.2656,6.2707,6.2751,6.2817,6.2861,6.2914,6.2993,6.3057,6.309,6.3153,6.3194,6.3192,6.3211,6.3209,6.3215,6.3097,6.3077,6.3212,6.3212,6.3212,6.3212,6.3212,6.3212,6.2543,6.263,6.2643,6.2748,6.2777,6.2852,6.2882,6.2923,6.2959,6.3048,6.3102,6.3123,6.3163,6.323,6.3288,6.3296,6.332,6.3343,6.3348,6.3238,6.3223,6.321,6.3191,6.3347,6.3348,6.3462,6.3463,6.3464]}]]